Regional Weather Roundup
Issued by NWS

Home | Current Version | Previous Version | Graphics & Text | Print | Product List | Glossary On
Versions: 1 2 3 4 5 6 7 8 9 10 11 12 13 14 15 16 17 18 19 20 21 22 23 24 25 26 27 28 29 30 31 32 33 34 35 36 37 38 39 40 41 42 43 44 45 46 47 48 49 50
000
ASUS43 KTOP 031208
RWRKS

WEATHER ROUNDUP FOR KANSAS
NATIONAL WEATHER SERVICE GOODLAND KS
700 AM CDT WED JUN 03 2020

NOTE:  "FAIR" INDICATES FEW OR NO CLOUDS BELOW 12,000 FEET WITH NO
SIGNIFICANT WEATHER AND/OR OBSTRUCTIONS TO VISIBILITY.

KSZ001>006-013>018-027>032-041>047-031300-
NORTHWEST KANSAS

CITY           SKY/WX    TMP DP  RH WIND       PRES   REMARKS
GOODLAND       CLEAR     56  51  84 W5        30.05S
6HR MIN TEMP:  54; 6HR MAX TEMP:  65;

HAYS           PTCLDY    68  61  78 N17       29.93S
HILL CITY      CLEAR     62  58  86 NW3       29.99R
6HR MIN TEMP:  62; 6HR MAX TEMP:  71;

RUSSELL        PTCLDY    67  63  87 N7        29.92R
6HR MIN TEMP:  66; 6HR MAX TEMP:  74;

$$

KSZ061>065-074>080-084>089-031300-
SOUTHWEST KANSAS

CITY           SKY/WX    TMP DP  RH WIND       PRES   REMARKS
DODGE CITY     CLEAR     64  57  78 NW9       29.95R
6HR MIN TEMP:  63; 6HR MAX TEMP:  77;

ELKHART        CLEAR     65  57  77 W6        30.03S
GARDEN CITY    CLEAR     66  54  65 N8        29.99R
6HR MIN TEMP:  65; 6HR MAX TEMP:  75;

GREAT BEND     CLEAR     66  62  87 CALM      29.92R
LIBERAL        CLEAR     60  54  80 NW5       29.97F
PRATT          CLEAR     69  66  92 S8        29.93S
6HR MIN TEMP:  69; 6HR MAX TEMP:  73;

$$

KSZ066>073-081>083-090>101-031300-
SOUTHEAST KANSAS

CITY           SKY/WX    TMP DP  RH WIND       PRES   REMARKS
CHANUTE        PTCLDY    73  69  87 S9        29.95S
6HR MIN TEMP:  72; 6HR MAX TEMP:  75;

COFFEYVILLE    CLEAR     72  68  87 S8        29.95S
6HR MIN TEMP:  71; 6HR MAX TEMP:  75;

HUTCHINSON     PTCLDY    69  65  86 S8        29.91F
6HR MIN TEMP:  67; 6HR MAX TEMP:  74;

MEDICINE LODGE   N/A     70  64  81 SE6       29.92S
NEWTON         PTCLDY    71  66  84 S13       29.93F
PARSONS        CLEAR     71  69  93 S7        29.97S
6HR MIN TEMP:  71; 6HR MAX TEMP:  74;

WICHITA INTL   MOCLDY    71  66  84 S10       29.92F
6HR MIN TEMP:  70; 6HR MAX TEMP:  75;

WINFIELD       CLEAR     70  68  93 S9        29.96S
6HR MIN TEMP:  68; 6HR MAX TEMP:  75;

$$

KSZ007>012-019>026-033>040-048>060-102>105-031300-
NORTHEAST KANSAS

CITY           SKY/WX    TMP DP  RH WIND       PRES   REMARKS
CONCORDIA      PTCLDY    71  65  81 NW5       29.91R
6HR MIN TEMP:  68; 6HR MAX TEMP:  78;

EMPORIA        CLEAR     72  69  90 S9        29.91F
6HR MIN TEMP:  71; 6HR MAX TEMP:  74;

LAWRENCE       SUNNY     75  68  78 SW10      29.88F
6HR MIN TEMP:  72; 6HR MAX TEMP:  76;

MANHATTAN      CLEAR     71  67  87 SW10      29.88S
6HR MIN TEMP:  70; 6HR MAX TEMP:  76;

MARYSVILLE     PTCLDY    72  68  88 W7        29.88R
OLATHE IND     SUNNY     73  68  84 S14G24    29.91F
6HR MIN TEMP:  71; 6HR MAX TEMP:  73;

OLATHE EXE     SUNNY     71  69  93 SW9       29.90F
6HR MIN TEMP:  70; 6HR MAX TEMP:  72;

SALINA         CLEAR     69  64  84 S6        29.90S
6HR MIN TEMP:  68; 6HR MAX TEMP:  76;

TOPEKA BILLARD SUNNY     75  67  76 SW8       29.87F
6HR MIN TEMP:  74; 6HR MAX TEMP:  77;

TOPEKA FORBES  SUNNY     73  69  87 S10       29.88S
6HR MIN TEMP:  72; 6HR MAX TEMP:  75;

$$



USA.gov is the U.S. government's official web portal to all federal, state and local government web resources and services.